Location: Monteux
(44.0348°N, 4.9972°E)
Time: 17:00:10
(UTC+00:00)

NOSS 3-3 (C) - Pass Details

Date: 30 November 2020
Orbit: 820 x 1392 km, 63.4° (Epoch: 14 January)

Event Time Altitude Azimuth Distance (km) Brightness Sun altitude
Rises 18:16:50 0° 323° (NW) 3,956 7.6 -23.4°
Reaches altitude 10° 18:19:26 10° 326° (NNW) 3,073 6.9 -23.8°
Maximum altitude 18:26:54 68° 49° (NE) 1,359 4.4 -25.2°
Enters shadow 18:29:57 42° 118° (ESE) 1,801 4.9 -25.7°
